This demonstration page uses our WeatherBlox Daily Observations layout. Learn more.

Left ArrowRight Arrow

Hourly Observations for May 23, 2019

Temp ( °F °C ) Dew Point ( °F °C ) Humidity (%) Winds ( mph kmh ) Pressure ( in mb ) Visibility ( mi km ) Precip ( " mm )
12:52 am 00:52 Partly Cloudy 76 24.4 68 20 77 77 SSW 12 19 29.90 1013 10 16 0.00 0.03
1:52 am 01:52 Mostly Cloudy with Nearby Thunderstorms 74 23.3 68 20 82 82 NW 7 11 29.93 1014 10 16 0.00 0.00
2:13 am 02:13 Cloudy 72 22.2 68 20 87 87 N 3 6 29.93 1014 10 16 0.00 0.00
2:45 am 02:45 Mostly Cloudy with Nearby Thunderstorms 73 22.8 68 20 84 84 NE 5 7 29.93 1014 10 16 0.00 0.00
2:52 am 02:52 Mostly Cloudy with Nearby Thunderstorms 73 22.8 68 20 84 84 NE 7 11 29.93 1013 10 16 0.00 0.00
3:02 am 03:02 Windy with Storms Likely 70 21.1 66 18.9 87 87 WNW 22 35 29.98 1015 4 6 0.00 0.03
3:18 am 03:18 Cloudy with Thunderstorms 66 18.9 60 15.6 81 81 VRB 6 9 29.98 1015 10 16 0.07 1.78
3:52 am 03:52 Cloudy with Thunderstorms 65 18.3 62 16.7 90 90 SSE 8 13 29.94 1014 5 8 0.32 8.13
4:08 am 04:08 Mostly Cloudy with Nearby Thunderstorms 65 18.3 63 17.2 93 93 S 9 15 29.97 1015 10 16 0.01 0.25
4:17 am 04:17 Mostly Cloudy with Thunderstorms 65 18.3 63 17.2 93 93 SSW 6 9 29.98 1015 9 14 0.02 0.51
4:52 am 04:52 Cloudy with Thunderstorms 68 20 63 17.2 84 84 S 16 26 29.94 1014 7 11 0.15 3.81
5:18 am 05:18 Cloudy with Strong Thunderstorms 68 20 64 17.8 87 87 SSW 17 28 29.98 1015 2 3 0.26 6.60
5:35 am 05:35 Cloudy with Strong Thunderstorms 66 18.9 64 17.8 93 93 undefined N/A 30.01 1016 1 1 0.87 22.10
5:50 am 05:50 Cloudy with Strong Thunderstorms 66 19 63 17 88 88 SE 16 26 30.00 1016 2 3 1.72 43.69
5:52 am 05:52 Cloudy with Strong Thunderstorms 66 18.9 63 17.2 90 90 ESE 13 20 29.98 1015 3 4 1.73 43.94
5:59 am 05:59 Cloudy with Strong Thunderstorms 67 19.4 63 17.2 87 87 E 12 19 29.98 1015 4 6 0.08 2.03
6:07 am 06:07 Cloudy with Nearby Thunderstorms 67 19.4 63 17.2 87 87 E 10 17 29.98 1015 9 14 0.12 3.05
6:18 am 06:18 Cloudy with Thunderstorms 67 19.4 63 17.2 87 87 WNW 9 15 30.00 1016 8 13 0.15 3.81
6:30 am 06:30 Cloudy with Strong Thunderstorms 66 18.9 63 17.2 90 90 N 15 24 29.98 1015 2 3 0.36 9.14
6:37 am 06:37 Cloudy with Strong Thunderstorms 65 18.3 63 17.2 93 93 N 22 35 30.01 1016 1 2 0.68 17.27
6:46 am 06:46 Mostly Cloudy with Strong Thunderstorms 66 19 64 18 94 94 WSW 22 35 30.05 1018 1 1 1.13 28.70
6:52 am 06:52 Mostly Cloudy with Strong Thunderstorms 67 19.4 65 18.3 93 93 E 6 9 30.01 1016 1 1 1.50 38.10
7:02 am 07:02 Cloudy with Thunderstorms 66 18.9 65 18.3 96 96 Calm 30.03 1017 3 4 0.47 11.94
7:09 am 07:09 Cloudy with Thunderstorms 66 18.9 65 18.3 96 96 Calm 30.02 1017 4 6 0.50 12.70
7:24 am 07:24 Cloudy with Light Rain 67 19.4 64 17.8 91 91 SE 12 19 30.01 1016 10 16 0.51 12.95
7:33 am 07:33 Cloudy with Thunderstorms 67 19.4 65 18.3 93 93 ESE 12 19 30.01 1016 10 16 0.52 13.21
7:52 am 07:52 Cloudy with Thunderstorms 67 19.4 65 18.3 93 93 undefined N/A 30.05 1018 10 16 0.53 13.46
8:05 am 08:05 Cloudy with Thunderstorms 71 21.7 64 17.8 79 79 N 6 9 30.04 1017 10 16 0.01 0.25
8:32 am 08:32 Cloudy with Nearby Thunderstorms 67 19.4 64 17.8 91 91 N 7 11 30.05 1017 10 16 0.04 1.02
8:44 am 08:44 Cloudy with Light Rain 67 19.4 65 18.3 93 93 NE 12 19 30.05 1017 10 16 0.05 1.27
8:49 am 08:49 Cloudy with Light Rain 66 19 64 18 94 94 S 10 17 30.05 1018 10 16 0.05 1.27
8:52 am 08:52 Cloudy with Light Rain 68 20 64 17.8 87 87 WSW 9 15 30.04 1017 10 16 0.05 1.27
9:52 am 09:52 Cloudy with Nearby Thunderstorms 68 20 65 18.3 90 90 Calm 30.08 1019 10 16 0.01 0.25
10:14 am 10:14 Cloudy with Light Rain 67 19.4 64 17.8 91 91 NE 7 11 30.09 1019 10 16 0.00 0.03
10:43 am 10:43 Cloudy with Light Rain 68 20 64 17.8 87 87 E 7 11 30.08 1019 10 16 0.00 0.03
10:52 am 10:52 Cloudy 68 20 64 17.8 87 87 Calm 30.09 1019 10 16 0.00 0.03
11:10 am 11:10 Cloudy 69 20.6 65 18.3 87 87 SSE 5 7 30.07 1018 10 16 0.00 0.00
11:40 am 11:40 Cloudy 73 22.8 67 19.4 81 81 ESE 8 13 30.06 1018 10 16 0.00 0.00
11:52 am 11:52 Cloudy 75 23.9 67 19.4 76 76 ESE 7 11 30.07 1018 10 16 0.00 0.00
1:52 pm 13:52 Sunny 83 28.3 72 22.2 70 70 S 9 15 30.04 1017 10 16 0.00 0.00
2:52 pm 14:52 Mostly Cloudy 84 28.9 70 21.1 63 63 S 14 22 30.02 1017 10 16 0.00 0.00
3:52 pm 15:52 Partly Cloudy 85 29.4 71 21.7 63 63 SSW 13 20 30.01 1016 10 16 0.00 0.00
4:52 pm 16:52 Sunny 85 29.4 70 21.1 61 61 SSW 16 26 29.98 1015 10 16 0.00 0.00
5:52 pm 17:52 Sunny 85 29.4 69 20.6 59 59 S 10 17 29.98 1015 10 16 0.00 0.00
6:52 pm 18:52 Sunny 82 27.8 69 20.6 65 65 S 9 15 29.97 1015 10 16 0.00 0.00
7:52 pm 19:52 Sunny 80 26.7 69 20.6 69 69 S 7 11 29.98 1015 10 16 0.00 0.00
8:52 pm 20:52 Clear 78 25.6 66 18.9 67 67 SSE 12 19 29.98 1015 10 16 0.00 0.00
9:52 pm 21:52 Clear 76 24.4 66 18.9 72 72 SSE 9 15 29.99 1016 10 16 0.00 0.00
10:52 pm 22:52 Clear 74 23.3 66 18.9 76 76 SSE 8 13 30.01 1016 10 16 0.00 0.00
11:52 pm 23:52 Clear 72 22.2 66 18.9 82 82 SSE 9 15 30.01 1016 10 16 0.00 0.00

Powered by AerisWeather